[[{"header":{"parameterUnit":"m.s-1","parameterCategory":1,"la1":30.2991,"la2":30.254,"lo1":-89.0895,"lo2":-89.0444,"dy":0.0017,"dx":0.0017,"nx":28,"ny":28,"refTime":"2023-04-22T21:00:00:Z","depth":0,"parameterNumber":2,"parameterNumberName":"U-component_of_WINDS"},"data":[0,0,0,0,0,0,0,0,0,0,0,0,0,0,0,0,0,0,0,0,0,0,0,0,0,0,0,0,0,0,0,0,0,0,0,0,0,0,0,0,0,0,0,0,0,0,0,0,0,0,0,0,0,0,0,0,0,0,-1.1326,-1.1326,0,-1.133,-1.133,-1.133,-1.129,-1.1289,-1.1288,-1.1287,-1.1292,-1.1293,-1.1294,0,0,0,0,0,0,0,0,0,0,0,0,0,-1.1285,-1.1286,-1.1326,-1.1326,-1.1326,-1.133,-1.133,-1.133,-1.129,-1.1289,-1.1288,-1.1286,-1.1291,-1.1293,-1.1294,0,0,0,0,0,0,0,0,0,0,0,0,0,-1.1297,-1.1286,-1.1326,-1.1307,-1.1305,-1.133,-1.133,-1.133,-1.1291,-1.1289,-1.1287,-1.1286,-1.1291,-1.1292,-1.1294,-1.1338,0,0,-1.1299,-1.13,0,0,0,0,0,0,0,0,-1.1297,-1.1299,-1.131,-1.1308,-1.1306,-1.1308,-1.1317,-1.1333,-1.1291,-1.1296,-1.1287,-1.1285,-1.1298,-1.1299,-1.1304,-1.1338,-1.1338,-1.13,-1.1301,-1.1301,-1.1302,0,0,0,0,0,0,0,-1.1296,-1.1298,-1.1328,-1.131,-1.1308,-1.1298,-1.1298,-1.132,-1.1307,-1.1296,-1.1293,-1.1294,-1.1297,-1.1302,-1.1304,-1.1338,-1.13,-1.1301,-1.1302,-1.1303,-1.1409,-1.141,0,0,0,0,0,0,-1.1297,-1.1298,-1.1328,-1.1328,-1.1297,-1.13,-1.13,-1.1309,-1.1306,-1.1304,-1.1295,-1.1292,-1.13,-1.1302,-1.1304,-1.1355,-1.1301,-1.1303,-1.1304,-1.1407,-1.1409,-1.1411,0,0,0,0,0,0,-1.1297,-1.13,-1.1328,-1.1312,-1.1315,-1.1303,-1.1313,-1.131,-1.1315,-1.1306,-1.1303,-1.1303,-1.1299,-1.1301,-1.133,-1.1355,-1.1304,-1.1305,-1.1405,-1.1408,-1.141,-1.1458,0,0,0,0,0,0,-1.1296,-1.13,-1.1317,-1.1313,-1.1316,-1.1354,-1.1315,-1.1311,-1.1318,-1.1314,-1.1312,-1.131,-1.1298,-1.1327,-1.1331,-1.1356,-1.1307,-1.1403,-1.1406,-1.1409,-1.1454,-1.1462,-1.1469,0,0,0,0,0,-1.1294,-1.1331,-1.1318,-1.1322,-1.1336,-1.1355,-1.1357,-1.1341,-1.132,-1.1337,-1.1331,-1.131,-1.1351,-1.133,-1.1335,-1.136,-1.1401,-1.1405,-1.1409,-1.1451,-1.146,-1.1468,0,0,0,0,0,0,-1.1339,-1.133,-1.1316,-1.1352,-1.1355,-1.1348,-1.1369,-1.1352,-1.1361,-1.1357,-1.1337,-1.1337,-1.1369,-1.1367,-1.1345,-1.1402,-1.1372,-1.1377,-1.1403,-1.1412,-1.1419,-1.1419,-1.1308,0,0,0,0,0,-1.1353,-1.1369,-1.136,-1.1393,-1.1394,-1.1382,-1.1389,-1.1377,-1.1379,-1.138,-1.1376,-1.1379,-1.1392,-1.1402,-1.1413,-1.1453,-1.1452,-1.1473,-1.148,-1.1486,-1.1491,-1.1512,-1.1521,-1.1424,-1.1424,-1.1424,0,0,-1.1382,-1.1379,-1.139,-1.1401,-1.1402,-1.1419,-1.1383,-1.1403,-1.1415,-1.1383,-1.141,-1.1407,-1.1409,-1.1443,-1.1458,-1.1443,-1.1517,-1.1491,-1.1496,-1.1498,-1.1517,-1.1526,-1.1535,-1.1427,-1.1426,-1.1426,0,0,-1.1444,-1.1443,-1.147,-1.1471,-1.1473,-1.1463,-1.147,-1.1466,-1.1463,-1.1489,-1.1465,-1.148,-1.1503,-1.1505,-1.151,-1.1571,-1.1553,-1.1576,-1.1614,-1.1635,-1.1643,-1.1649,-1.1672,-1.168,-1.158,-1.1581,-1.1581,0,-1.1481,-1.1505,-1.1487,-1.1508,-1.1513,-1.1484,-1.1512,-1.1513,-1.1519,-1.1523,-1.1506,-1.1534,-1.1533,-1.1568,-1.1583,-1.1587,-1.1594,-1.1577,-1.1643,-1.1649,-1.1656,-1.1677,-1.1686,-1.1583,-1.1583,-1.1583,-1.1582,0,-1.155,-1.1568,-1.1589,-1.1595,-1.1602,-1.1627,-1.1612,-1.1622,-1.1608,-1.1601,-1.1628,-1.1626,-1.1636,-1.1643,-1.163,-1.1676,-1.1667,-1.1646,-1.1616,-1.1668,-1.1688,-1.1696,-1.1587,-1.1586,-1.1585,-1.1585,0,0,-1.1643,-1.1636,-1.1644,-1.1646,-1.1645,-1.1658,-1.168,-1.169,-1.17,-1.1704,-1.1722,-1.1742,-1.1723,-1.1728,-1.1715,-1.1733,-1.1783,-1.171,-1.171,-1.1725,-1.1833,-1.185,-1.186,-1.177,-1.1771,-1.1772,-1.1834,0,-1.1704,-1.1742,-1.1725,-1.1766,-1.1782,-1.1753,-1.1773,-1.1774,-1.1767,-1.178,-1.1772,-1.1787,-1.176,-1.1763,-1.178,-1.1773,-1.1804,-1.1768,-1.1788,-1.1789,-1.179,-1.187,-1.1887,-1.1945,-1.1841,-1.1842,-1.1843,0,-1.1781,-1.1788,-1.183,-1.1825,-1.1831,-1.1849,-1.1856,-1.1868,-1.1869,-1.1863,-1.1868,-1.185,-1.1872,-1.184,-1.187,-1.1846,-1.1853,-1.1851,-1.1852,-1.1855,-1.1821,-1.1876,-1.1963,-1.1973,-1.1855,-1.1854,-1.1853,0,-1.1845,-1.1865,-1.1892,-1.1894,-1.1889,-1.1902,-1.1901,-1.1899,-1.1906,-1.1913,-1.1917,-1.1926,-1.1932,-1.1939,-1.1924,-1.1902,-1.1957,-1.1924,-1.1953,-1.1953,-1.1967,-1.1967,-1.2058,-1.1969,-1.1969,-1.1969,-1.1969,0,-1.1917,-1.1944,-1.1921,-1.1938,-1.1967,-1.1947,-1.1976,-1.1972,-1.1971,-1.1986,-1.1962,-1.1977,-1.1956,-1.1969,-1.1958,-1.1985,-1.1987,-1.1983,-1.198,-1.1986,-1.1987,-1.1992,-1.1988,-1.1971,-1.1971,-1.197,-1.197,0,-1.1994,-1.198,-1.2008,-1.2,-1.1999,-1.2021,-1.2014,-1.203,-1.202,-1.2041,-1.2044,-1.2031,-1.2045,-1.203,-1.2044,-1.2036,-1.2073,-1.2063,-1.2073,-1.207,-1.2101,-1.2099,-1.22,-1.2212,-1.2114,-1.2115,-1.2116,0,-1.2041,-1.2061,-1.2055,-1.2064,-1.2064,-1.2078,-1.2084,-1.2065,-1.2073,-1.2074,-1.209,-1.2101,-1.211,-1.2134,-1.2126,-1.2136,-1.2127,-1.2162,-1.2129,-1.2134,-1.2129,-1.2129,-1.2131,-1.2169,-1.217,-1.2171,-1.2172,0,-1.2127,-1.2119,-1.2129,-1.2137,-1.2145,-1.2151,-1.2154,-1.2163,-1.2142,-1.2152,-1.2166,-1.2173,-1.2186,-1.2199,-1.2206,-1.2204,-1.2185,-1.2182,-1.219,-1.2197,-1.2202,-1.2201,-1.2092,-1.218,-1.2179,-1.2179,-1.2178,-1.2178,-1.2191,-1.2208,-1.2206,-1.2218,-1.2218,-1.2222,-1.2236,-1.2228,-1.224,-1.2249,-1.2236,-1.2254,-1.2253,-1.2261,-1.2261,-1.2275,-1.226,-1.2271,-1.2274,-1.2277,-1.2282,-1.2199,-1.2276,-1.2275,-1.2275,-1.2275,-1.2275,0,-1.2277,-1.2274,-1.2285,-1.229,-1.23,-1.2279,-1.2282,-1.2292,-1.2307,-1.2308,-1.2316,-1.2333,-1.2344,-1.2336,-1.2346,-1.2358,-1.235,-1.2361,-1.2361,-1.2361,-1.2294,-1.2287,-1.2368,-1.2368,-1.2368,-1.2368,-1.2368,-1.2368,-1.2322,-1.2349,-1.234,-1.2367,-1.2363,-1.238,-1.2383,-1.2386,-1.2387,-1.2406,-1.2415,-1.2409,-1.2406,-1.2415,-1.2425,-1.2422,-1.2428,-1.2443,-1.2437,-1.2375,-1.2366,-1.2357,-1.2351,-1.2444,-1.2444,-1.2504,-1.2504,-1.2505]},{"header":{"parameterUnit":"m.s-1","parameterCategory":1,"la1":30.2991,"la2":30.254,"lo1":-89.0895,"lo2":-89.0444,"dy":0.0017,"dx":0.0017,"nx":28,"ny":28,"refTime":"2023-04-22T21:00:00:Z","depth":0,"parameterNumber":3,"parameterNumberName":"V-component_of_WINDS"},"data":[0,0,0,0,0,0,0,0,0,0,0,0,0,0,0,0,0,0,0,0,0,0,0,0,0,0,0,0,0,0,0,0,0,0,0,0,0,0,0,0,0,0,0,0,0,0,0,0,0,0,0,0,0,0,0,0,0,0,-3.678,-3.6781,0,-3.6835,-3.6836,-3.6836,-3.6854,-3.6853,-3.6853,-3.6853,-3.6904,-3.6905,-3.6907,0,0,0,0,0,0,0,0,0,0,0,0,0,-3.6686,-3.6688,-3.678,-3.6781,-3.6782,-3.6835,-3.6836,-3.6836,-3.6854,-3.6853,-3.6853,-3.6853,-3.6903,-3.6905,-3.6907,0,0,0,0,0,0,0,0,0,0,0,0,0,-3.6732,-3.6688,-3.678,-3.6797,-3.6799,-3.6835,-3.6836,-3.6837,-3.6854,-3.6853,-3.6853,-3.6853,-3.6902,-3.6905,-3.6907,-3.6929,0,0,-3.6914,-3.6915,0,0,0,0,0,0,0,0,-3.673,-3.6736,-3.6794,-3.6796,-3.6798,-3.6837,-3.6821,-3.6867,-3.6854,-3.6833,-3.6853,-3.6852,-3.6881,-3.6886,-3.6896,-3.6931,-3.6933,-3.6915,-3.6916,-3.6917,-3.6918,0,0,0,0,0,0,0,-3.6726,-3.6733,-3.6802,-3.6794,-3.6797,-3.68,-3.6806,-3.683,-3.6858,-3.6834,-3.6836,-3.6842,-3.6883,-3.6894,-3.6898,-3.6934,-3.6914,-3.6917,-3.6918,-3.6919,-3.6991,-3.6992,0,0,0,0,0,0,-3.6721,-3.6731,-3.68,-3.6803,-3.6762,-3.6802,-3.6809,-3.6825,-3.6858,-3.6863,-3.6843,-3.6843,-3.689,-3.6895,-3.69,-3.6929,-3.6917,-3.6919,-3.6921,-3.6991,-3.6992,-3.6992,0,0,0,0,0,0,-3.6719,-3.6727,-3.6798,-3.6768,-3.6777,-3.6804,-3.6822,-3.6826,-3.6838,-3.6864,-3.6869,-3.685,-3.689,-3.6896,-3.6922,-3.6931,-3.692,-3.6922,-3.699,-3.6991,-3.6992,-3.6987,0,0,0,0,0,0,-3.6716,-3.6726,-3.6736,-3.6768,-3.6778,-3.6821,-3.6822,-3.6828,-3.6843,-3.6844,-3.6872,-3.6876,-3.689,-3.6919,-3.6925,-3.6934,-3.6924,-3.699,-3.6991,-3.6992,-3.6986,-3.6987,-3.6988,0,0,0,0,0,-3.6713,-3.673,-3.6736,-3.6744,-3.6791,-3.6821,-3.6827,-3.6844,-3.6843,-3.6853,-3.687,-3.6876,-3.6929,-3.6921,-3.6928,-3.6938,-3.6989,-3.699,-3.6991,-3.6986,-3.6987,-3.6988,0,0,0,0,0,0,-3.6696,-3.6735,-3.6742,-3.677,-3.6793,-3.6824,-3.6836,-3.6845,-3.6866,-3.6866,-3.6885,-3.6891,-3.6916,-3.6929,-3.692,-3.6962,-3.6959,-3.6962,-3.6953,-3.6954,-3.6955,-3.6951,-3.6926,0,0,0,0,0,-3.6696,-3.6719,-3.6751,-3.6773,-3.6784,-3.6808,-3.6822,-3.6834,-3.6857,-3.6866,-3.6885,-3.6906,-3.6928,-3.6941,-3.6962,-3.6988,-3.6995,-3.6998,-3.6999,-3.7,-3.7002,-3.7018,-3.7021,-3.6996,-3.6996,-3.6996,0,0,-3.6695,-3.672,-3.6732,-3.677,-3.6789,-3.6812,-3.6816,-3.6839,-3.6856,-3.6869,-3.6896,-3.691,-3.6935,-3.6961,-3.6974,-3.6973,-3.701,-3.7001,-3.7002,-3.7004,-3.702,-3.7022,-3.7024,-3.6997,-3.6996,-3.6996,0,0,-3.6707,-3.6727,-3.6749,-3.6768,-3.6798,-3.6814,-3.6819,-3.685,-3.6861,-3.6889,-3.69,-3.6919,-3.6955,-3.6973,-3.6987,-3.7007,-3.7013,-3.7013,-3.7018,-3.7033,-3.7035,-3.7037,-3.7046,-3.7048,-3.7015,-3.7015,-3.7015,0,-3.6702,-3.6738,-3.6758,-3.6782,-3.6799,-3.6814,-3.6836,-3.6853,-3.6887,-3.6897,-3.6897,-3.6945,-3.6962,-3.6994,-3.6999,-3.7009,-3.7015,-3.701,-3.7034,-3.7036,-3.7038,-3.7046,-3.7049,-3.7015,-3.7015,-3.7015,-3.7015,0,-3.6731,-3.6756,-3.677,-3.6806,-3.6824,-3.6846,-3.6869,-3.6884,-3.6895,-3.6911,-3.6939,-3.6961,-3.6988,-3.6996,-3.7005,-3.7029,-3.7028,-3.703,-3.7028,-3.704,-3.7048,-3.7051,-3.7014,-3.7014,-3.7014,-3.7014,0,0,-3.6732,-3.6781,-3.6786,-3.6803,-3.6837,-3.6856,-3.6879,-3.6908,-3.6922,-3.6944,-3.6965,-3.6996,-3.6999,-3.7015,-3.7026,-3.7039,-3.7056,-3.704,-3.7041,-3.7043,-3.7086,-3.7085,-3.7089,-3.706,-3.7061,-3.7061,-3.7084,0,-3.6748,-3.6794,-3.6813,-3.6849,-3.6872,-3.6888,-3.6909,-3.6931,-3.6947,-3.6969,-3.6985,-3.7008,-3.7009,-3.7019,-3.7033,-3.7051,-3.7065,-3.7049,-3.7079,-3.708,-3.7074,-3.7093,-3.7092,-3.7112,-3.7087,-3.7088,-3.7088,0,-3.6773,-3.68,-3.6839,-3.6873,-3.6883,-3.6902,-3.6931,-3.6951,-3.6977,-3.6988,-3.7007,-3.7018,-3.7042,-3.7038,-3.7072,-3.7061,-3.7074,-3.7085,-3.7086,-3.709,-3.7085,-3.7098,-3.7119,-3.7122,-3.7093,-3.7093,-3.7092,0,-3.6772,-3.6817,-3.6847,-3.6861,-3.6901,-3.6914,-3.693,-3.6956,-3.6973,-3.6998,-3.7009,-3.7035,-3.7049,-3.7068,-3.7086,-3.7081,-3.7119,-3.7116,-3.7128,-3.7128,-3.7136,-3.7136,-3.716,-3.7142,-3.7142,-3.7142,-3.7142,0,-3.6789,-3.6812,-3.6847,-3.6865,-3.6892,-3.6915,-3.694,-3.6957,-3.6981,-3.7002,-3.7016,-3.7035,-3.7057,-3.7079,-3.7093,-3.712,-3.7125,-3.7134,-3.7138,-3.7134,-3.7133,-3.7144,-3.7143,-3.7143,-3.7143,-3.7143,-3.7143,0,-3.6792,-3.6816,-3.685,-3.6886,-3.6896,-3.6914,-3.6945,-3.6963,-3.698,-3.7007,-3.7014,-3.7041,-3.7068,-3.7087,-3.7121,-3.713,-3.7159,-3.7162,-3.7151,-3.7154,-3.7166,-3.7165,-3.7199,-3.7205,-3.7182,-3.7182,-3.7182,0,-3.6801,-3.682,-3.686,-3.6877,-3.6895,-3.692,-3.6939,-3.6961,-3.6979,-3.7012,-3.7026,-3.7054,-3.7078,-3.712,-3.7141,-3.7168,-3.7172,-3.7182,-3.7176,-3.7172,-3.7174,-3.7173,-3.7176,-3.7183,-3.7183,-3.7183,-3.7183,0,-3.6816,-3.6828,-3.6855,-3.6887,-3.6909,-3.6935,-3.696,-3.6972,-3.6999,-3.7019,-3.7048,-3.7067,-3.7103,-3.7131,-3.716,-3.7175,-3.7184,-3.7186,-3.719,-3.7187,-3.718,-3.7186,-3.7155,-3.7185,-3.7184,-3.7184,-3.7184,-3.7184,-3.6824,-3.6842,-3.6874,-3.6904,-3.6927,-3.6951,-3.697,-3.6992,-3.7017,-3.705,-3.7061,-3.7092,-3.7119,-3.7159,-3.7175,-3.7198,-3.7198,-3.7204,-3.7206,-3.7208,-3.7208,-3.7176,-3.7203,-3.7203,-3.7203,-3.7203,-3.7203,0,-3.6841,-3.6863,-3.689,-3.6928,-3.6951,-3.696,-3.6989,-3.7008,-3.7035,-3.7061,-3.7085,-3.712,-3.7147,-3.7172,-3.7201,-3.7215,-3.722,-3.7222,-3.7221,-3.7225,-3.7206,-3.72,-3.7217,-3.7217,-3.7217,-3.7217,-3.7217,-3.7217,-3.6852,-3.6885,-3.6901,-3.6945,-3.6966,-3.6999,-3.7015,-3.7037,-3.7058,-3.7097,-3.7121,-3.7138,-3.7163,-3.7194,-3.722,-3.7227,-3.7237,-3.7239,-3.7246,-3.7228,-3.7226,-3.7224,-3.7219,-3.724,-3.724,-3.7263,-3.7264,-3.7264]}]]